Temp
32 28 27 29 30 33 31 32 31 31 32 32 29 28 29 30 29 28 26 27 27 27 25 25 25 24 23 23 22 21 21 21 20 20 19 19 19 19 18 18 18 18 18 18
28 27 30 32 32 32 32 31 31 32 33 32 28 28 29 30 29 26 27 27 27 24 26 26 25 24 23 23 22 21 21 20 20 20 19 19 19 19 19 19 19 18 18 18
28 30 33 32 31 32 31 30 32 31 32 32 31 28 29 30 30 26 28 29 27 25 26 26 25 24 24 23 22 22 21 21 20 19 19 19 19 20 20 20 20 19 18 18
29 31 32 32 32 31 28 33 33 33 30 27 30 25 26 28 28 24 23 26 28 26 26 25 26 25 24 23 23 23 22 21 20 20 19 20 20 20 20 20 20 19 20 19
29 31 31 31 31 32 31 34 32 33 30 29 29 26 26 27 27 23 24 27 26 29 28 26 27 26 25 24 24 23 22 22 21 21 20 19 20 20 20 20 20 19 19 20
30 34 33 31 33 32 35 33 32 31 28 24 27 28 26 27 27 26 25 24 26 27 27 25 26 27 27 26 24 24 23 22 22 21 21 21 20 20 20 20 21 20 19 17
30 31 32 34 32 31 32 30 24 25 24 24 29 25 25 24 24 26 24 22 23 24 25 26 25 27 27 25 25 24 23 22 22 21 21 21 21 21 20 21 21 19 19 19
26 27 31 33 30 30 30 28 23 27 26 27 26 23 23 22 24 25 23 23 23 20 20 21 23 28 27 26 25 25 24 23 22 21 21 21 20 20 20 20 20 20 20 19
28 28 32 33 33 33 31 28 28 29 29 27 21 22 23 23 25 25 25 27 21 22 22 21 25 26 26 26 25 25 24 23 22 22 21 20 20 20 20 19 19 20 20 19
29 29 31 33 33 33 32 30 27 24 27 26 24 21 23 22 26 25 25 27 27 22 24 25 27 26 24 26 25 25 24 24 23 22 22 21 20 20 20 20 19 19 19 19
32 30 30 32 29 27 26 27 29 26 26 26 25 24 22 21 21 23 23 26 27 23 22 28 27 24 24 26 25 25 24 23 22 21 21 20 20 20 20 20 19 19 19 19
33 25 24 26 28 29 26 26 27 24 26 25 23 19 22 19 20 22 18 17 20 19 20 23 22 23 25 25 25 24 23 22 22 22 22 21 20 20 20 20 19 19 19 19
30 25 21 22 27 28 25 26 26 28 25 26 24 21 21 18 20 18 19 19 19 20 23 23 23 23 23 24 24 23 22 21 22 21 21 20 20 19 19 20 19 19 19 19
31 26 24 22 23 23 25 27 26 25 24 26 23 20 18 18 19 18 16 16 18 23 22 21 21 20 20 20 20 21 20 20 21 20 19 20 20 20 20 20 20 20 20 19
27 24 24 25 26 26 26 26 26 25 26 27 23 19 20 19 18 17 17 19 19 23 22 22 21 21 21 20 20 20 20 21 21 20 20 21 20 20 20 20 19 18 18 18
29 23 26 25 26 25 26 27 27 27 28 28 26 25 21 20 20 16 18 22 21 19 22 23 22 22 21 20 20 20 20 20 20 20 20 19 19 18 18 18 18 17 17 16
27 23 24 24 24 25 23 26 26 26 27 28 24 26 24 19 18 17 18 20 17 18 22 22 21 21 21 21 21 20 20 19 19 19 18 18 18 17 17 17 16 16 16 15
26 25 24 23 23 21 26 28 28 27 29 29 25 25 25 22 22 18 18 17 18 19 21 21 22 21 21 21 20 20 20 19 19 19 18 18 17 17 16 16 15 15 15 15
28 25 23 23 24 26 27 28 29 28 26 27 25 25 25 23 22 20 21 22 21 20 20 21 22 22 21 21 20 20 19 19 18 18 17 17 17 16 16 15 15 15 15 14
26 25 23 23 25 24 25 29 30 28 22 27 26 25 26 22 19 19 22 22 22 21 21 21 21 20 20 19 19 19 18 18 17 17 16 16 15 15 15 15 14 14 14 13
24 24 24 23 24 25 24 28 30 25 23 25 24 24 23 21 21 22 22 21 21 20 20 20 19 18 18 18 18 17 17 16 15 15 15 14 14 14 14 13 13 13 13 13
24 23 23 23 24 24 25 25 24 23 25 24 24 23 23 23 22 21 21 20 19 19 19 18 18 17 16 17 16 15 14 14 13 13 13 12 12 12 12 11 11 12 12 12
24 24 22 22 20 24 26 25 25 25 23 23 22 22 21 21 20 19 19 18 17 17 17 17 16 16 15 14 14 13 12 11 12 11 11 10 9 10 10 10 11 11 11 10
24 26 22 22 23 24 25 24 24 23 22 22 21 20 20 19 18 18 17 17 16 15 15 14 14 13 13 12 11 9 8 8 8 8 8 8 8 9 10 10 10 10 10 10
24 26 23 23 22 25 24 23 22 22 21 20 20 19 18 18 17 16 15 15 14 13 12 11 11 10 9 8 8 7 7 8 8 7 7 7 6 6 6 7 7 7 8 8
26 23 22 20 23 23 22 22 21 20 19 19 19 17 17 16 15 15 14 13 12 11 11 10 9 8 7 6 6 7 6 6 6 5 5 5 5 5 5 5 5 5 5 6
Height
1480 1490 1497 1483 1476 1474 1478 1479 1482 1481 1474 1480 1488 1494 1495 1498 1504 1509 1512 1518 1519 1518 1522 1525 1529 1531 1534 1537 1540 1542 1545 1548 1549 1552 1555 1557 1560 1560 1562 1564 1565 1566 1566 1566
1485 1495 1480 1475 1471 1474 1472 1482 1481 1476 1472 1478 1487 1490 1489 1492 1499 1505 1507 1510 1514 1521 1522 1525 1527 1528 1530 1534 1537 1541 1544 1546 1548 1552 1556 1557 1558 1557 1558 1560 1561 1562 1565 1566
1488 1481 1473 1477 1475 1476 1476 1480 1477 1483 1473 1472 1480 1495 1494 1489 1493 1500 1503 1505 1513 1518 1520 1524 1525 1526 1528 1531 1534 1539 1541 1544 1547 1551 1555 1557 1555 1550 1555 1558 1559 1560 1561 1560
1478 1470 1474 1474 1477 1474 1492 1469 1472 1472 1486 1511 1477 1529 1499 1487 1493 1496 1498 1504 1506 1516 1525 1530 1527 1526 1526 1528 1531 1536 1540 1543 1547 1551 1552 1552 1553 1554 1555 1556 1558 1557 1555 1556
1480 1469 1472 1476 1472 1465 1476 1462 1470 1472 1483 1490 1489 1511 1497 1486 1493 1498 1500 1494 1506 1514 1518 1523 1525 1526 1525 1525 1528 1531 1537 1541 1543 1546 1549 1550 1553 1554 1554 1554 1555 1555 1558 1564
1467 1461 1461 1465 1461 1461 1459 1467 1470 1475 1489 1526 1496 1496 1499 1493 1488 1494 1497 1495 1506 1522 1516 1519 1518 1523 1522 1525 1524 1527 1532 1538 1541 1542 1545 1547 1550 1552 1552 1555 1555 1556 1556 1552
1470 1465 1457 1457 1466 1462 1464 1479 1525 1528 1529 1530 1484 1502 1506 1494 1493 1499 1508 1508 1503 1511 1514 1504 1511 1517 1518 1521 1520 1524 1530 1533 1538 1539 1540 1543 1546 1548 1550 1552 1553 1556 1556 1552
1492 1496 1461 1453 1463 1471 1471 1482 1521 1529 1527 1514 1491 1522 1512 1495 1490 1490 1501 1510 1512 1505 1512 1523 1518 1516 1515 1515 1515 1521 1527 1531 1534 1536 1537 1540 1542 1546 1548 1550 1551 1554 1555 1553
1482 1481 1448 1451 1452 1457 1470 1487 1469 1490 1484 1503 1523 1511 1502 1487 1484 1480 1482 1484 1503 1506 1510 1487 1512 1515 1516 1511 1514 1518 1524 1528 1532 1533 1534 1536 1539 1543 1546 1548 1547 1549 1550 1550
1461 1478 1456 1451 1451 1453 1459 1459 1494 1497 1518 1520 1516 1523 1511 1496 1481 1477 1475 1482 1479 1499 1494 1492 1499 1507 1509 1510 1514 1518 1522 1525 1528 1532 1531 1534 1535 1539 1542 1545 1546 1546 1547 1548
1447 1462 1467 1454 1470 1480 1478 1480 1472 1481 1491 1514 1528 1514 1494 1495 1487 1483 1485 1484 1472 1485 1485 1482 1493 1506 1512 1511 1514 1517 1517 1524 1527 1530 1530 1531 1532 1536 1539 1542 1545 1545 1545 1545
1444 1467 1491 1480 1463 1464 1471 1482 1478 1506 1501 1490 1501 1531 1495 1488 1487 1489 1493 1484 1488 1496 1477 1481 1501 1510 1507 1508 1513 1518 1519 1524 1527 1530 1531 1529 1531 1534 1536 1539 1543 1544 1544 1544
1450 1474 1510 1502 1475 1464 1478 1476 1477 1469 1474 1487 1510 1517 1494 1501 1497 1496 1485 1483 1486 1486 1460 1493 1492 1503 1508 1516 1513 1518 1520 1524 1525 1530 1531 1529 1530 1532 1533 1536 1538 1540 1541 1540
1448 1468 1484 1514 1496 1486 1486 1477 1477 1485 1497 1487 1500 1506 1504 1507 1504 1506 1499 1512 1494 1494 1491 1490 1498 1512 1515 1518 1519 1517 1521 1521 1524 1528 1530 1529 1529 1531 1532 1534 1536 1537 1536 1535
1455 1485 1480 1478 1472 1473 1475 1478 1481 1488 1481 1488 1496 1505 1498 1502 1502 1501 1500 1504 1505 1494 1491 1498 1509 1517 1520 1522 1523 1521 1524 1523 1526 1530 1531 1530 1529 1530 1529 1529 1529 1529 1529 1528
1449 1483 1476 1486 1478 1480 1482 1477 1477 1474 1475 1472 1477 1485 1481 1496 1502 1504 1506 1506 1502 1516 1507 1511 1517 1520 1520 1520 1521 1520 1524 1526 1527 1529 1530 1529 1528 1528 1526 1525 1525 1523 1522 1521
1456 1474 1483 1499 1487 1489 1505 1481 1475 1475 1475 1468 1490 1481 1479 1497 1500 1502 1501 1508 1513 1515 1515 1514 1520 1518 1519 1517 1518 1517 1523 1525 1527 1528 1528 1526 1524 1523 1521 1521 1520 1518 1516 1515
1469 1465 1473 1494 1497 1527 1480 1458 1463 1477 1466 1465 1474 1476 1479 1489 1490 1503 1508 1510 1516 1510 1517 1516 1520 1520 1517 1516 1517 1519 1524 1526 1526 1526 1524 1522 1520 1519 1517 1516 1515 1514 1512 1510
1450 1463 1482 1498 1498 1481 1469 1464 1464 1469 1477 1467 1472 1475 1482 1487 1494 1504 1506 1509 1512 1515 1515 1517 1519 1520 1515 1518 1518 1521 1522 1522 1522 1522 1520 1518 1516 1514 1512 1511 1510 1508 1505 1503
1455 1458 1477 1486 1499 1508 1479 1462 1460 1462 1498 1471 1472 1477 1482 1487 1502 1505 1505 1507 1510 1511 1514 1516 1517 1515 1513 1515 1516 1517 1516 1516 1516 1515 1514 1512 1510 1508 1506 1505 1502 1499 1497 1494
1472 1473 1482 1487 1492 1485 1476 1464 1463 1490 1500 1476 1476 1479 1482 1491 1498 1504 1507 1508 1509 1509 1511 1511 1510 1510 1512 1513 1513 1512 1511 1511 1510 1508 1506 1505 1504 1501 1500 1497 1495 1491 1488 1485
1474 1481 1484 1481 1488 1499 1473 1471 1484 1485 1481 1482 1485 1487 1489 1494 1499 1501 1504 1506 1507 1507 1508 1509 1510 1510 1509 1509 1509 1508 1506 1505 1503 1502 1500 1498 1496 1494 1492 1489 1486 1483 1480 1477
1475 1466 1478 1479 1488 1476 1475 1477 1479 1480 1483 1487 1489 1493 1494 1497 1500 1502 1504 1505 1506 1507 1507 1508 1508 1508 1507 1505 1504 1502 1500 1497 1495 1494 1492 1491 1489 1487 1485 1482 1478 1475 1473 1470
1463 1459 1470 1473 1476 1474 1476 1479 1480 1482 1486 1489 1492 1495 1498 1500 1502 1504 1505 1506 1506 1506 1506 1506 1505 1504 1502 1501 1500 1498 1495 1494 1491 1488 1486 1483 1480 1478 1476 1474 1471 1467 1465 1462
1464 1462 1467 1471 1472 1474 1477 1479 1483 1486 1488 1492 1495 1497 1500 1502 1504 1505 1505 1506 1506 1506 1505 1503 1502 1502 1501 1499 1497 1496 1493 1490 1487 1484 1480 1477 1474 1471 1467 1464 1461 1459 1456 1455
1458 1463 1470 1473 1467 1470 1477 1480 1483 1487 1491 1495 1498 1501 1504 1505 1506 1506 1506 1506 1505 1504 1504 1503 1502 1500 1499 1497 1495 1492 1490 1487 1484 1481 1478 1474 1470 1466 1462 1458 1453 1451 1448 1445
Wind_Speed
19 3 5 7 10 7 14 4 11 11 7 6 14 17 15 19 23 21 15 16 15 33 31 25 26 23 25 21 20 19 17 15 13 12 9 5 3 3 6 5 5 10 11 12
7 8 7 16 17 8 6 7 6 10 9 5 11 9 17 14 21 30 28 26 20 11 31 27 27 27 29 25 24 19 16 17 16 11 6 2 1 6 10 11 10 12 11 12
8 11 9 12 10 7 6 7 2 8 8 7 3 5 13 11 15 35 19 25 20 11 30 32 30 30 30 28 29 24 20 19 17 13 9 9 9 11 8 4 7 7 15 13
9 14 8 12 15 8 8 4 7 5 3 4 6 3 7 13 12 20 25 28 22 24 8 23 32 32 31 30 28 21 18 21 19 17 15 13 13 6 6 3 4 9 10 12
11 10 11 12 10 7 6 2 6 5 3 4 9 4 8 11 8 18 24 29 16 25 20 24 29 32 32 32 26 18 17 17 17 18 19 14 10 6 6 8 11 12 10 8
10 18 5 8 7 9 4 4 4 4 1 4 9 3 4 11 8 14 24 30 33 16 22 25 22 28 29 28 23 17 19 17 17 16 16 16 12 11 10 7 4 4 9 9
9 10 7 6 3 9 5 3 3 3 1 7 5 8 2 8 13 12 14 23 23 34 23 37 30 37 35 31 23 20 19 18 17 17 15 15 15 12 12 8 6 4 8 9
7 8 9 6 11 9 8 8 5 5 3 5 10 2 3 5 9 6 11 4 20 47 35 20 38 35 37 31 25 21 19 17 16 18 16 13 12 11 10 9 7 6 3 7
3 7 7 8 6 2 6 4 11 6 5 3 4 2 7 6 6 14 18 27 18 33 35 33 6 8 33 30 25 22 18 16 13 15 13 11 9 8 8 8 8 6 5 5
9 1 7 11 8 9 5 5 6 4 3 1 1 3 5 6 7 8 7 15 20 4 36 31 16 33 18 29 25 22 18 16 10 8 8 8 8 7 6 7 6 3 3 1
4 2 5 4 7 5 6 6 5 2 3 3 2 2 4 4 7 8 9 20 21 11 20 17 24 25 16 29 26 23 19 15 10 10 12 8 7 5 4 3 3 3 1 2
4 5 5 5 5 7 8 5 3 3 9 4 6 4 6 9 1 4 17 24 23 45 19 28 26 24 20 21 25 22 19 15 11 8 9 9 4 3 3 3 1 1 2 8
5 2 4 9 7 5 6 5 12 8 1 2 4 4 4 7 1 18 19 35 31 10 37 30 26 21 17 15 15 15 13 11 6 4 7 8 8 4 3 5 6 7 8 10
5 5 7 6 8 3 6 8 10 6 4 3 3 5 6 7 7 17 30 20 29 16 22 23 18 15 13 13 12 13 16 15 13 10 14 13 11 9 8 9 12 16 18 18
7 5 8 6 7 4 3 3 12 15 13 3 8 10 15 12 9 27 33 28 25 20 22 21 19 14 10 11 12 12 10 10 9 7 5 5 6 9 13 16 19 20 19 17
2 7 4 4 2 8 7 6 9 15 17 4 9 7 13 21 16 8 21 22 16 8 16 11 6 9 10 8 6 4 2 5 7 8 9 11 16 16 18 20 22 23 23 22
3 7 5 5 3 7 7 13 2 9 13 7 7 5 13 16 17 23 28 19 27 22 23 22 18 17 13 12 6 1 2 2 5 8 13 18 18 19 20 21 21 22 24 24
11 7 4 5 8 3 9 16 14 9 6 5 12 11 15 20 28 30 26 29 26 20 22 15 12 11 12 12 9 7 3 7 11 14 17 18 18 17 17 18 20 21 24 27
5 4 4 4 1 6 8 9 4 5 6 8 9 10 26 30 35 19 20 16 20 19 17 13 7 6 7 3 1 4 7 9 10 11 13 15 17 19 21 22 24 28 32 37
6 6 5 4 2 2 8 4 15 9 5 8 19 13 15 26 10 3 17 16 15 15 14 13 10 7 5 4 1 5 5 8 11 14 14 15 18 21 24 27 29 32 38 37
3 3 3 2 0 3 9 10 7 4 2 23 24 26 26 13 18 22 17 17 15 13 12 9 7 6 5 4 6 9 10 11 13 15 19 21 22 25 27 30 34 35 36 32
3 3 1 1 1 1 16 10 5 3 23 28 28 27 29 25 24 21 17 15 13 11 8 7 6 8 11 13 14 14 17 20 22 23 26 28 29 30 30 29 28 28 30 32
2 5 4 5 5 5 10 16 19 22 27 25 25 22 23 22 20 17 15 13 11 10 8 9 10 12 16 20 23 24 25 29 31 30 28 25 24 27 26 27 30 32 30 28
5 10 3 6 3 8 15 19 23 22 25 22 20 18 18 17 14 12 9 8 7 8 11 14 16 19 21 22 22 20 24 22 24 25 25 26 28 30 33 33 34 35 34 32
4 3 4 3 8 15 16 22 22 23 22 19 16 13 12 10 9 6 6 5 6 8 12 14 16 16 17 20 18 18 19 20 22 23 24 25 26 26 30 30 30 29 28 27
2 2 2 4 15 8 18 22 20 19 18 14 11 12 9 4 6 4 4 5 8 10 12 14 14 12 14 16 17 17 18 21 22 24 25 27 28 30 28 28 29 32 32 30
Wind_Direction
251 251 285 326 300 140 238 218 132 186 197 182 141 167 172 185 173 144 116 138 175 175 175 186 194 195 197 195 188 188 189 191 202 209 203 195 234 246 266 245 224 222 239 245
276 227 127 283 295 267 230 277 202 164 157 173 173 171 172 190 178 147 130 171 221 289 179 190 195 184 191 191 189 191 196 199 203 215 189 161 321 291 311 223 212 218 242 240
226 240 230 249 275 267 265 252 206 160 182 191 174 195 170 195 143 143 155 166 198 252 182 187 188 189 191 189 190 194 198 205 206 207 186 188 198 195 239 259 246 229 231 247
243 247 225 211 243 216 251 14 321 219 85 212 178 226 206 181 155 157 157 161 189 209 187 202 189 193 195 192 194 204 206 208 207 206 188 202 210 236 261 284 298 256 254 264
249 239 224 254 247 237 240 268 256 267 218 225 278 140 222 174 178 165 158 175 171 174 220 204 193 199 201 197 202 204 208 211 203 197 194 201 217 217 228 256 247 234 272 297
251 279 208 220 219 266 237 120 310 292 215 331 260 215 223 170 177 147 168 159 150 192 226 234 206 199 203 201 198 201 204 215 211 201 194 204 214 203 233 240 320 256 280 311
273 271 275 214 269 262 255 106 307 338 341 227 174 61 126 22 3 20 158 169 160 168 174 243 221 196 196 191 194 201 205 208 210 211 209 205 211 216 232 247 265 252 282 309
198 267 213 195 204 209 188 177 177 235 172 250 46 16 264 314 314 8 100 335 234 177 189 252 224 188 188 188 190 201 205 209 211 212 216 207 199 215 230 239 262 252 272 282
240 254 189 210 228 154 275 210 226 254 278 91 177 204 298 310 344 358 341 331 67 167 168 114 160 211 185 181 188 197 201 206 214 212 203 205 209 224 242 242 253 265 293 292
251 17 303 219 195 248 199 248 3 345 327 258 1 173 220 246 195 223 278 285 293 261 156 161 205 226 195 182 187 198 204 213 216 212 197 205 209 231 236 230 228 286 286 96
245 139 280 75 48 33 347 300 272 224 165 94 209 281 321 214 227 239 330 298 277 292 187 183 176 192 197 184 184 196 197 199 183 188 196 201 204 228 213 108 115 96 56 331
218 92 87 286 313 84 79 3 345 84 283 179 158 283 286 237 206 337 7 324 298 310 209 139 149 139 129 133 176 175 175 183 190 221 218 209 238 186 101 34 100 67 234 276
355 46 57 348 341 16 65 331 319 342 6 358 86 245 247 300 269 70 17 341 323 351 90 105 107 114 125 141 152 149 155 140 168 176 154 129 112 124 162 160 190 206 229 260
60 48 126 167 225 129 289 317 317 315 37 335 157 183 242 214 248 109 96 109 281 84 97 98 100 102 101 115 144 133 133 131 138 144 158 156 177 204 236 264 277 282 284 284
118 127 133 196 230 187 259 297 320 318 308 43 163 180 195 191 190 155 159 172 278 105 106 110 117 122 126 113 110 119 127 148 169 184 194 224 263 292 301 304 307 310 308 302
256 177 121 223 23 314 325 346 301 303 305 46 80 68 178 173 137 130 158 166 128 206 151 148 166 155 136 121 119 95 353 286 275 276 284 302 315 312 312 311 312 310 309 308
291 149 154 183 39 327 312 239 109 293 294 84 91 113 104 157 171 186 188 186 187 212 167 164 169 158 147 144 162 88 267 238 285 282 295 303 303 305 306 305 302 303 304 303
261 150 140 147 144 178 235 196 204 217 28 55 97 93 74 127 198 187 200 188 158 175 149 136 158 166 149 145 147 155 222 271 285 292 299 301 299 296 293 289 286 285 290 295
81 81 52 102 356 317 351 25 77 114 34 91 113 103 105 92 95 96 135 142 127 133 133 121 98 131 143 164 230 281 288 293 298 296 291 286 282 279 281 281 285 291 300 305
81 103 104 50 55 281 275 126 102 92 23 42 97 105 103 97 88 99 98 115 96 89 92 86 89 78 85 90 201 256 264 271 280 283 282 277 280 286 292 295 297 297 300 301
82 55 94 35 181 79 328 33 49 68 211 53 81 93 92 102 123 112 99 85 79 74 73 66 52 38 23 335 306 291 285 281 283 282 281 283 284 287 290 293 298 299 298 297
132 112 211 275 261 133 347 34 85 146 82 85 80 95 101 98 94 90 83 69 58 44 26 17 347 339 317 304 305 308 306 297 296 296 297 299 298 299 300 298 297 297 297 301
70 157 155 130 177 156 80 80 96 94 87 86 85 74 83 78 72 66 60 49 35 21 354 319 307 301 306 309 309 310 309 305 304 304 304 301 305 305 305 307 305 304 302 298
26 25 77 83 168 129 102 90 103 102 96 88 85 83 78 69 59 53 39 27 1 334 325 312 310 312 313 313 319 325 320 322 323 322 321 312 307 301 298 298 298 298 298 295
152 96 122 100 129 116 118 115 109 101 99 92 86 82 71 63 55 45 23 339 324 327 326 321 324 326 323 324 328 326 325 330 330 334 335 333 330 324 317 311 310 309 306 303
132 146 132 212 155 137 134 129 123 112 102 92 99 92 83 91 67 59 30 347 330 320 314 315 326 335 334 339 335 343 345 343 342 336 332 329 328 325 321 318 313 308 307 295